Regional Weather Roundup
Issued by NWS Albany, NY

Home | Current Version | Previous Version | Text Only | Print | Product List | Glossary On
Versions: 1 2 3 4 5 6 7 8 9 10 11 12 13 14 15 16 17 18 19 20 21 22 23 24 25 26 27 28 29 30 31 32 33 34 35 36 37 38 39 40 41 42 43 44 45 46 47 48 49 50
481
ASUS41 KALY 231810
RWRALY

NEW YORK STATE HOURLY WEATHER ROUNDUP
NATIONAL WEATHER SERVICE ALBANY NY
200 PM EDT TUE AUG 23 2016

NOTE: "FAIR" INDICATES FEW OR NO CLOUDS BELOW 12,000 FEET WITH NO
SIGNIFICANT WEATHER AND/OR NO OBSTRUCTIONS TO VISIBILITY.

NYZ032-033-038>043-046>054-057>066-NYZ062>081-082-084-231900-
EAST


CITY           SKY/WX    TMP DP  RH WIND       PRES   REMARKS
ALBANY         MOSUNNY   77  53  43 VRB5      30.27F
GLENS FALLS    PTSUNNY   76  58  53 S12       30.25F
POUGHKEEPSIE   SUNNY     78  53  41 VRB5      30.28S
NEWBURGH       MOSUNNY   75  57  53 CALM      30.31F
MONTGOMERY     MOSUNNY   78  56  46 SW6       30.28F
WHITE PLAINS   MOSUNNY   77  50  38 NW7       30.29F
ISLIP          MOSUNNY   77  53  43 S12G20    30.29F
NEW YORK CITY  MOSUNNY   81  49  32 CALM      30.28F
CENTRAL PARK   SUNNY     80  52  37 CALM      30.31F
$$

NYZ005>009-017-018-044>046-055-056-231900-
CENTRAL


CITY           SKY/WX    TMP DP  RH WIND       PRES   REMARKS
FULTON         PTSUNNY   78  57  48 W7        30.26F
SYRACUSE       PTSUNNY   77  56  48 MISG      30.26F
ROME           SUNNY     75  56  51 W13       30.29S
ELMIRA         SUNNY     77  53  43 W8        30.28F
BINGHAMTON     MOSUNNY   71  54  54 SW9       30.31F
MONTICELLO     SUNNY     73  54  49 NW7       30.33S
$$

NYZ026>034-041>043-087-231900-
NORTH


CITY           SKY/WX    TMP DP  RH WIND       PRES   REMARKS
WATERTOWN      SUNNY     77  56  48 SW15      30.24F
FORT DRUM      NOT AVBL
MASSENA        MOSUNNY   78  58  49 SW13      30.19F
SARANAC LAKE   SUNNY     72  47  40 SW13G23   30.24F
PLATTSBURGH    SUNNY     79  53  40 VRB7      30.19F
$$

NYZ001>004-010>016-019>021-085-231900-
WEST


CITY           SKY/WX    TMP DP  RH WIND       PRES   REMARKS
NIAGARA FALLS  MOSUNNY   80  55  42 SW20G28   30.26
BUFFALO        MOSUNNY   79  51  37 W14       30.27S
DUNKIRK        SUNNY     76  55  48 W12       30.28F
JAMESTOWN      SUNNY     72  54  53 SW10      30.32F
WELLSVILLE     SUNNY     74  50  42 SW10G16   30.35F
ROCHESTER      MOSUNNY   81  56  42 SW12      30.26S
PENN YAN       SUNNY     77  54  44 S8        30.29F
$$

             KEY
       WCI = WIND CHILL INDEX
       VSB = VISIBILITY
       HX  = HEAT INDEX
$$




USA.gov is the U.S. government's official web portal to all federal, state and local government web resources and services.